#S.N.C.L,B084.PB.LDD.
#year,mon,day,hour,minute,second,value
2009,7,26,14,17,19.810000,2027830
2009,7,26,15,17,19.810000,2029310
2009,7,26,16,17,19.810000,2030490
2009,7,26,17,17,19.810000,2031060
2009,7,26,18,17,19.810000,2030970
2009,7,26,19,17,19.810000,2030320
2009,7,26,20,17,19.810000,2029190
2009,7,26,21,17,19.810000,2027990
2009,7,26,22,17,19.810000,2026790
2009,7,26,23,17,19.810000,2026090
2009,7,27,0,17,19.810000,2026090
2009,7,27,1,17,19.810000,2026600
2009,7,27,2,17,19.810000,2027550
2009,7,27,3,17,19.810000,2028680
2009,7,27,4,17,19.810000,2029770
2009,7,27,5,17,19.810000,2030530
2009,7,27,6,17,19.810000,2030590
2009,7,27,7,17,19.810000,2029990
2009,7,27,8,17,19.810000,2028890
2009,7,27,9,17,19.810000,2027500
2009,7,27,10,17,19.810000,2026200
2009,7,27,11,17,19.810000,2025260
2009,7,27,12,17,19.810000,2024820
2009,7,27,13,17,19.810000,2024980
2009,7,27,14,17,19.810000,2025700
2009,7,27,15,17,19.810000,2026830
2009,7,27,16,17,19.810000,2027910
2009,7,27,17,17,19.810000,2028720
2009,7,27,18,17,19.810000,2029210
2009,7,27,19,17,19.810000,2029210
2009,7,27,20,17,19.810000,2028720
2009,7,27,21,17,19.810000,2028060
2009,7,27,22,17,19.810000,2027320
2009,7,27,23,17,19.810000,2026670
2009,7,28,0,17,19.810000,2026320
2009,7,28,1,17,19.810000,2026350
2009,7,28,2,17,19.810000,2026780
2009,7,28,3,17,19.810000,2027470
2009,7,28,4,17,19.810000,2028260
2009,7,28,5,17,19.810000,2028910
2009,7,28,6,17,19.810000,2029140
2009,7,28,7,17,19.810000,2028810
2009,7,28,8,17,19.810000,2027960
2009,7,28,9,17,19.810000,2026800
2009,7,28,10,17,19.810000,2025530
2009,7,28,11,17,19.810000,2024360
2009,7,28,12,17,19.810000,2023510
2009,7,28,13,17,19.810000,2023180
2009,7,28,14,17,19.810000,2023370
2009,7,28,15,17,19.810000,2023970
2009,7,28,16,17,19.810000,2024750
2009,7,28,17,17,19.810000,2025560
2009,7,28,18,17,19.810000,2026330
2009,7,28,19,17,19.810000,2026850
2009,7,28,20,17,19.810000,2027020
2009,7,28,21,17,19.810000,2026930
2009,7,28,22,17,19.810000,2026640
2009,7,28,23,17,19.810000,2026260
2009,7,29,0,17,19.810000,2025890
2009,7,29,1,17,19.810000,2025700
2009,7,29,2,17,19.810000,2025770
2009,7,29,3,17,19.810000,2026110
2009,7,29,4,17,19.810000,2026580
2009,7,29,5,17,19.810000,2027100
2009,7,29,6,17,19.810000,2027450
2009,7,29,7,17,19.810000,2027500
2009,7,29,8,17,19.810000,2027080
2009,7,29,9,17,19.810000,2026300
2009,7,29,10,17,19.810000,2025240
2009,7,29,11,17,19.810000,2024200
2009,7,29,12,17,19.810000,2023200
2009,7,29,13,17,19.810000,2022620
2009,7,29,14,17,19.810000,2022350
2009,7,29,15,17,19.810000,2022530
2009,7,29,16,17,19.810000,2022910
2009,7,29,17,17,19.810000,2023530
2009,7,29,18,17,19.810000,2024320
2009,7,29,19,17,19.810000,2025170
2009,7,29,20,17,19.810000,2025910
2009,7,29,21,17,19.810000,2026410
2009,7,29,22,17,19.810000,2026620
2009,7,29,23,17,19.810000,2026640
2009,7,30,0,17,19.810000,2026490
2009,7,30,1,17,19.810000,2026280
2009,7,30,2,17,19.810000,2026160
2009,7,30,3,17,19.810000,2026140
2009,7,30,4,17,19.810000,2026370
2009,7,30,5,17,19.810000,2026810
2009,7,30,6,17,19.810000,2027110
2009,7,30,7,17,19.810000,2027310
2009,7,30,8,17,19.810000,2027250
2009,7,30,9,17,19.810000,2026970
2009,7,30,10,17,19.810000,2026350
2009,7,30,11,17,19.810000,2025560
2009,7,30,12,17,19.810000,2024630
2009,7,30,13,17,19.810000,2023760
2009,7,30,14,17,19.810000,2023080
2009,7,30,15,17,19.810000,2022700
2009,7,30,16,17,19.810000,2022630
2009,7,30,17,17,19.810000,2022900
2009,7,30,18,17,19.810000,2023460
2009,7,30,19,17,19.810000,2024320
2009,7,30,20,17,19.810000,2025240
2009,7,30,21,17,19.810000,2026160
2009,7,30,22,17,19.810000,2026920
2009,7,30,23,17,19.810000,2027320
2009,7,31,0,17,19.810000,2027520
2009,7,31,1,17,19.810000,2027380
2009,7,31,2,17,19.810000,2027180
2009,7,31,3,17,19.810000,2026970
2009,7,31,4,17,19.810000,2026990
2009,7,31,5,17,19.810000,2027200
2009,7,31,6,17,19.810000,2027520
2009,7,31,7,17,19.810000,2027870
2009,7,31,8,17,19.810000,2028100
2009,7,31,9,17,19.810000,2028170
2009,7,31,10,17,19.810000,2028000
2009,7,31,11,17,19.810000,2027450
2009,7,31,12,17,19.810000,2026640
2009,7,31,13,17,19.810000,2025670
2009,7,31,14,17,19.810000,2024700
2009,7,31,15,17,19.810000,2023870
2009,7,31,16,17,19.810000,2023210
2009,7,31,17,17,19.810000,2022880
2009,7,31,18,17,19.810000,2022990
2009,7,31,19,17,19.810000,2023600
2009,7,31,20,17,19.810000,2024550
2009,7,31,21,17,19.810000,2025720
2009,7,31,22,17,19.810000,2026860
2009,7,31,23,17,19.810000,2027760
2009,8,1,0,17,19.810000,2028280
2009,8,1,1,17,19.810000,2028400
2009,8,1,2,17,19.810000,2028240
2009,8,1,3,17,19.810000,2027890
2009,8,1,4,17,19.810000,2027620
2009,8,1,5,17,19.810000,2027520
2009,8,1,6,17,19.810000,2027570
2009,8,1,7,17,19.810000,2027820
2009,8,1,8,17,19.810000,2028210
2009,8,1,9,17,19.810000,2028580
2009,8,1,10,17,19.810000,2028740
2009,8,1,11,17,19.810000,2028600
2009,8,1,12,17,19.810000,2028080
2009,8,1,13,17,19.810000,2027240
2009,8,1,14,17,19.810000,2026130
2009,8,1,15,17,19.810000,2025000
2009,8,1,16,17,19.810000,2023900
2009,8,1,17,17,19.810000,2023060
2009,8,1,18,17,19.810000,2022770
2009,8,1,19,17,19.810000,2023020
2009,8,1,20,17,19.810000,2023850
2009,8,1,21,17,19.810000,2025030
2009,8,1,22,17,19.810000,2026460
2009,8,1,23,17,19.810000,2027680
2009,8,2,0,17,19.810000,2028630
2009,8,2,1,17,19.810000,2029070
2009,8,2,2,17,19.810000,2029000
2009,8,2,3,17,19.810000,2028580
2009,8,2,4,17,19.810000,2028130
2009,8,2,5,17,19.810000,2027730
2009,8,2,6,17,19.810000,2027500
2009,8,2,7,17,19.810000,2027570
2009,8,2,8,17,19.810000,2027940
2009,8,2,9,17,19.810000,2028490
2009,8,2,10,17,19.810000,2028960
2009,8,2,11,17,19.810000,2029230
2009,8,2,12,17,19.810000,2029070
2009,8,2,13,17,19.810000,2028420
2009,8,2,14,17,19.810000,2027340
2009,8,2,15,17,19.810000,2026020
2009,8,2,16,17,19.810000,2024540
2009,8,2,17,17,19.810000,2023230
2009,8,2,18,17,19.810000,2022420
2009,8,2,19,17,19.810000,2022190
2009,8,2,20,17,19.810000,2022690
2009,8,2,21,17,19.810000,2023740
2009,8,2,22,17,19.810000,2025190
2009,8,2,23,17,19.810000,2026670
2009,8,3,0,17,19.810000,2027850
2009,8,3,1,17,19.810000,2028560
2009,8,3,2,17,19.810000,2028820
2009,8,3,3,17,19.810000,2028520
2009,8,3,4,17,19.810000,2028030
2009,8,3,5,17,19.810000,2027450
2009,8,3,6,17,19.810000,2026990
2009,8,3,7,17,19.810000,2026810
2009,8,3,8,17,19.810000,2027060
2009,8,3,9,17,19.810000,2027710
2009,8,3,10,17,19.810000,2028520
2009,8,3,11,17,19.810000,2029230
2009,8,3,12,17,19.810000,2029530
2009,8,3,13,17,19.810000,2029300
2009,8,3,14,17,19.810000,2028420
2009,8,3,15,17,19.810000,2027100
2009,8,3,16,17,19.810000,2025440
2009,8,3,17,17,19.810000,2023830
2009,8,3,18,17,19.810000,2022760
2009,8,3,19,17,19.810000,2021850
2009,8,3,20,17,19.810000,2022030
2009,8,3,21,17,19.810000,2023090
2009,8,3,22,17,19.810000,2024800
2009,8,3,23,17,19.810000,2026600
2009,8,4,0,17,19.810000,2028170
2009,8,4,1,17,19.810000,2029280
2009,8,4,2,17,19.810000,2029770
2009,8,4,3,17,19.810000,2029690
2009,8,4,4,17,19.810000,2029180
2009,8,4,5,17,19.810000,2028450
2009,8,4,6,17,19.810000,2027800
2009,8,4,7,17,19.810000,2027450
2009,8,4,8,17,19.810000,2027620
2009,8,4,9,17,19.810000,2028260
2009,8,4,10,17,19.810000,2029250
2009,8,4,11,17,19.810000,2030290
2009,8,4,12,17,19.810000,2030990
2009,8,4,13,17,19.810000,2031150
2009,8,4,14,17,19.810000,2030680
2009,8,4,15,17,19.810000,2029550
2009,8,4,16,17,19.810000,2027820
2009,8,4,17,17,19.810000,2025840
2009,8,4,18,17,19.810000,2024100
2009,8,4,19,17,19.810000,2022900
2009,8,4,20,17,19.810000,2022700
2009,8,4,21,17,19.810000,2023300
2009,8,4,22,17,19.810000,2024570
2009,8,4,23,17,19.810000,2026390
2009,8,5,0,17,19.810000,2028240
2009,8,5,1,17,19.810000,2029580
2009,8,5,2,17,19.810000,2030370
2009,8,5,3,17,19.810000,2030390
2009,8,5,4,17,19.810000,2029900
2009,8,5,5,17,19.810000,2029120
2009,8,5,6,17,19.810000,2028220
2009,8,5,7,17,19.810000,2027500
2009,8,5,8,17,19.810000,2027290
2009,8,5,9,17,19.810000,2027450
2009,8,5,10,17,19.810000,2028720
2009,8,5,11,17,19.810000,2029970
2009,8,5,12,17,19.810000,2031080
2009,8,5,13,17,19.810000,2031720
2009,8,5,14,17,19.810000,2031650
2009,8,5,15,17,19.810000,2030730
2009,8,5,16,17,19.810000,2029120
2009,8,5,17,17,19.810000,2027060
2009,8,5,18,17,19.810000,2025070
2009,8,5,19,17,19.810000,2023480
2009,8,5,20,17,19.810000,2022670
2009,8,5,21,17,19.810000,2022810
2009,8,5,22,17,19.810000,2023760
2009,8,5,23,17,19.810000,2025350
2009,8,6,0,17,19.810000,2027180
2009,8,6,1,17,19.810000,2028800
2009,8,6,2,17,19.810000,2029810
2009,8,6,3,17,19.810000,2029930
2009,8,6,4,17,19.810000,2029480
2009,8,6,5,17,19.810000,2028580
2009,8,6,6,17,19.810000,2027410
2009,8,6,7,17,19.810000,2026430
2009,8,6,8,17,19.810000,2025900
2009,8,6,9,17,19.810000,2026020
2009,8,6,10,17,19.810000,2026830
2009,8,6,11,17,19.810000,2028080
2009,8,6,12,17,19.810000,2029490
2009,8,6,13,17,19.810000,2030620
2009,8,6,14,17,19.810000,2031010
2009,8,6,15,17,19.810000,2030520
2009,8,6,16,17,19.810000,2029140
2009,8,6,17,17,19.810000,2027180
2009,8,6,18,17,19.810000,2025050
2009,8,6,19,17,19.810000,2023250
2009,8,6,20,17,19.810000,2022100
2009,8,6,21,17,19.810000,2021890
2009,8,6,22,17,19.810000,2022540
2009,8,6,23,17,19.810000,2023900
2009,8,7,0,17,19.810000,2025680
2009,8,7,1,17,19.810000,2027340
2009,8,7,2,17,19.810000,2028660
2009,8,7,3,17,19.810000,2029320
2009,8,7,4,17,19.810000,2029110
2009,8,7,5,17,19.810000,2028220
2009,8,7,6,17,19.810000,2026890
2009,8,7,7,17,19.810000,2025580
2009,8,7,8,17,19.810000,2024640
2009,8,7,9,17,19.810000,2024380
2009,8,7,10,17,19.810000,2024860
2009,8,7,11,17,19.810000,2025930
2009,8,7,12,17,19.810000,2027340
2009,8,7,13,17,19.810000,2028650
2009,8,7,14,17,19.810000,2029350
2009,8,7,15,17,19.810000,2029420
2009,8,7,16,17,19.810000,2028650
2009,8,7,17,17,19.810000,2027250
2009,8,7,18,17,19.810000,2025450
2009,8,7,19,17,19.810000,2023640
2009,8,7,20,17,19.810000,2022240
2009,8,7,21,17,19.810000,2021610
2009,8,7,22,17,19.810000,2021960
2009,8,7,23,17,19.810000,2023110
2009,8,8,0,17,19.810000,2024690
2009,8,8,1,17,19.810000,2026440
2009,8,8,2,17,19.810000,2027940
2009,8,8,3,17,19.810000,2028750
2009,8,8,4,17,19.810000,2028910
2009,8,8,5,17,19.810000,2028370
2009,8,8,6,17,19.810000,2027240
2009,8,8,7,17,19.810000,2025900
2009,8,8,8,17,19.810000,2024750
2009,8,8,9,17,19.810000,2024200
2009,8,8,10,17,19.810000,2024380
2009,8,8,11,17,19.810000,2025300
2009,8,8,12,17,19.810000,2026690
2009,8,8,13,17,19.810000,2028220
2009,8,8,14,17,19.810000,2029500
2009,8,8,15,17,19.810000,2030320
2009,8,8,16,17,19.810000,2030250
2009,8,8,17,17,19.810000,2029250
2009,8,8,18,17,19.810000,2027640
2009,8,8,19,17,19.810000,2025750
2009,8,8,20,17,19.810000,2024080
2009,8,8,21,17,19.810000,2023040
2009,8,8,22,17,19.810000,2022830
2009,8,8,23,17,19.810000,2023410
2009,8,9,0,17,19.810000,2024660
2009,8,9,1,17,19.810000,2026230
2009,8,9,2,17,19.810000,2027710
2009,8,9,3,17,19.810000,2028750
2009,8,9,4,17,19.810000,2029210
2009,8,9,5,17,19.810000,2028910
2009,8,9,6,17,19.810000,2027890
2009,8,9,7,17,19.810000,2026510
2009,8,9,8,17,19.810000,2025190
2009,8,9,9,17,19.810000,2024220
2009,8,9,10,17,19.810000,2023940
2009,8,9,11,17,19.810000,2024470
2009,8,9,12,17,19.810000,2025630
2009,8,9,13,17,19.810000,2027180
2009,8,9,14,17,19.810000,2028750
2009,8,9,15,17,19.810000,2029920
2009,8,9,16,17,19.810000,2030290
2009,8,9,17,17,19.810000,2029810
2009,8,9,18,17,19.810000,2028680
2009,8,9,19,17,19.810000,2027080
2009,8,9,20,17,19.810000,2025490
2009,8,9,21,17,19.810000,2024310
2009,8,9,22,17,19.810000,2023710
2009,8,9,23,17,19.810000,2023880
2009,8,10,0,17,19.810000,2024690
2009,8,10,1,17,19.810000,2026000
2009,8,10,2,17,19.810000,2027410
2009,8,10,3,17,19.810000,2028590
2009,8,10,4,17,19.810000,2029280
2009,8,10,5,17,19.810000,2029280
2009,8,10,6,17,19.810000,2028470
2009,8,10,7,17,19.810000,2027260
2009,8,10,8,17,19.810000,2025830
2009,8,10,9,17,19.810000,2024630
2009,8,10,10,17,19.810000,2023970
2009,8,10,11,17,19.810000,2024080
2009,8,10,12,17,19.810000,2024930
2009,8,10,13,17,19.810000,2026320
2009,8,10,14,17,19.810000,2027940
2009,8,10,15,17,19.810000,2029480
2009,8,10,16,17,19.810000,2030410
2009,8,10,17,17,19.810000,2030550
2009,8,10,18,17,19.810000,2030020
2009,8,10,19,17,19.810000,2028960
2009,8,10,20,17,19.810000,2027710
2009,8,10,21,17,19.810000,2026580
2009,8,10,22,17,19.810000,2025860
2009,8,10,23,17,19.810000,2025720
2009,8,11,0,17,19.810000,2026180
2009,8,11,1,17,19.810000,2027110
2009,8,11,2,17,19.810000,2028290
2009,8,11,3,17,19.810000,2029440
2009,8,11,4,17,19.810000,2030360
2009,8,11,5,17,19.810000,2030730
2009,8,11,6,17,19.810000,2030320
2009,8,11,7,17,19.810000,2029280
2009,8,11,8,17,19.810000,2027910
2009,8,11,9,17,19.810000,2026570
2009,8,11,10,17,19.810000,2025610
2009,8,11,11,17,19.810000,2025190
2009,8,11,12,17,19.810000,2025440
2009,8,11,13,17,19.810000,2026360
2009,8,11,14,17,19.810000,2027710
2009,8,11,15,17,19.810000,2029180
2009,8,11,16,17,19.810000,2030390
2009,8,11,17,17,19.810000,2031030
2009,8,11,18,17,19.810000,2031170
2009,8,11,19,17,19.810000,2030660
2009,8,11,20,17,19.810000,2029850
2009,8,11,21,17,19.810000,2028950
2009,8,11,22,17,19.810000,2028130
2009,8,11,23,17,19.810000,2027730
2009,8,12,0,17,19.810000,2027780
2009,8,12,1,17,19.810000,2028220
2009,8,12,2,17,19.810000,2029070
2009,8,12,3,17,19.810000,2030000
2009,8,12,4,17,19.810000,2030850
2009,8,12,5,17,19.810000,2031240
2009,8,12,6,17,19.810000,2031060
2009,8,12,7,17,19.810000,2030220
2009,8,12,8,17,19.810000,2028950
2009,8,12,9,17,19.810000,2027470
2009,8,12,10,17,19.810000,2026130
2009,8,12,11,17,19.810000,2025190
2009,8,12,12,17,19.810000,2024770
2009,8,12,13,17,19.810000,2025050
2009,8,12,14,17,19.810000,2025900
2009,8,12,15,17,19.810000,2027130
2009,8,12,16,17,19.810000,2028370
2009,8,12,17,17,19.810000,2029320
2009,8,12,18,17,19.810000,2029920
2009,8,12,19,17,19.810000,2030020
2009,8,12,20,17,19.810000,2029740
2009,8,12,21,17,19.810000,2029230
2009,8,12,22,17,19.810000,2028680
2009,8,12,23,17,19.810000,2028170
2009,8,13,0,17,19.810000,2027960
2009,8,13,1,17,19.810000,2027960
2009,8,13,2,17,19.810000,2028310
2009,8,13,3,17,19.810000,2028950
2009,8,13,4,17,19.810000,2029650
2009,8,13,5,17,19.810000,2030200
2009,8,13,6,17,19.810000,2030290
2009,8,13,7,17,19.810000,2029830
2009,8,13,8,17,19.810000,2028950
2009,8,13,9,17,19.810000,2027730
2009,8,13,10,17,19.810000,2026410
2009,8,13,11,17,19.810000,2025170
2009,8,13,12,17,19.810000,2024330
2009,8,13,13,17,19.810000,2023920
2009,8,13,14,17,19.810000,2024060
2009,8,13,15,17,19.810000,2024800
2009,8,13,16,17,19.810000,2025770
2009,8,13,17,17,19.810000,2026860
2009,8,13,18,17,19.810000,2027850
2009,8,13,19,17,19.810000,2028490
2009,8,13,20,17,19.810000,2028730
2009,8,13,21,17,19.810000,2028660
2009,8,13,22,17,19.810000,2028450
2009,8,13,23,17,19.810000,2028070
2009,8,14,0,17,19.810000,2027910
2009,8,14,1,17,19.810000,2027800
2009,8,14,2,17,19.810000,2027850
2009,8,14,3,17,19.810000,2028210
2009,8,14,4,17,19.810000,2028750
2009,8,14,5,17,19.810000,2029210
2009,8,14,6,17,19.810000,2029460
2009,8,14,7,17,19.810000,2029420
2009,8,14,8,17,19.810000,2028950
2009,8,14,9,17,19.810000,2028120
2009,8,14,10,17,19.810000,2026990
2009,8,14,11,17,19.810000,2025690
2009,8,14,12,17,19.810000,2024470
2009,8,14,13,17,19.810000,2023430
2009,8,14,14,17,19.810000,2022760
2009,8,14,15,17,19.810000,2022630
2009,8,14,16,17,19.810000,2023000
2009,8,14,17,17,19.810000,2023760
2009,8,14,18,17,19.810000,2024800
2009,8,14,19,17,19.810000,2025910
2009,8,14,20,17,19.810000,2026950
2009,8,14,21,17,19.810000,2027820
2009,8,14,22,17,19.810000,2028360
2009,8,14,23,17,19.810000,2028490
2009,8,15,0,17,19.810000,2028430
2009,8,15,1,17,19.810000,2028200
2009,8,15,2,17,19.810000,2027960
2009,8,15,3,17,19.810000,2027850
2009,8,15,4,17,19.810000,2027990
2009,8,15,5,17,19.810000,2028330
2009,8,15,6,17,19.810000,2028680
2009,8,15,7,17,19.810000,2028840
2009,8,15,8,17,19.810000,2028650
2009,8,15,9,17,19.810000,2028120
2009,8,15,10,17,19.810000,2027480
2009,8,15,11,17,19.810000,2026320
2009,8,15,12,17,19.810000,2024860
2009,8,15,13,17,19.810000,2023410
2009,8,15,14,17,19.810000,2022140
2009,8,15,15,17,19.810000,2021310
2009,8,15,16,17,19.810000,2020940
2009,8,15,17,17,19.810000,2021150
2009,8,15,18,17,19.810000,2021930
2009,8,15,19,17,19.810000,2023110
2009,8,15,20,17,19.810000,2024550
2009,8,15,21,17,19.810000,2026050
2009,8,15,22,17,19.810000,2027290
2009,8,15,23,17,19.810000,2028080
2009,8,16,0,17,19.810000,2028380
2009,8,16,1,17,19.810000,2028200
2009,8,16,2,17,19.810000,2027750
2009,8,16,3,17,19.810000,2027290
2009,8,16,4,17,19.810000,2026970
2009,8,16,5,17,19.810000,2026940
2009,8,16,6,17,19.810000,2027100
2009,8,16,7,17,19.810000,2027570
2009,8,16,8,17,19.810000,2027970
2009,8,16,9,17,19.810000,2028260
2009,8,16,10,17,19.810000,2028240
2009,8,16,11,17,19.810000,2027750
2009,8,16,12,17,19.810000,2026760
2009,8,16,13,17,19.810000,2025400
2009,8,16,14,17,19.810000,2023790
2009,8,16,15,17,19.810000,2022210
2009,8,16,16,17,19.810000,2020960
2009,8,16,17,17,19.810000,2020270
2009,8,16,18,17,19.810000,2020340
2009,8,16,19,17,19.810000,2021130
2009,8,16,20,17,19.810000,2022600
2009,8,16,21,17,19.810000,2024360
2009,8,16,22,17,19.810000,2026120
2009,8,16,23,17,19.810000,2027550
2009,8,17,0,17,19.810000,2028430
2009,8,17,1,17,19.810000,2028630
2009,8,17,2,17,19.810000,2028260
2009,8,17,3,17,19.810000,2027570
2009,8,17,4,17,19.810000,2026850
2009,8,17,5,17,19.810000,2026340
2009,8,17,6,17,19.810000,2026200
2009,8,17,7,17,19.810000,2026480
2009,8,17,8,17,19.810000,2027110
2009,8,17,9,17,19.810000,2027890
2009,8,17,10,17,19.810000,2028490
2009,8,17,11,17,19.810000,2028740
2009,8,17,12,17,19.810000,2028350
2009,8,17,13,17,19.810000,2027310
2009,8,17,14,17,19.810000,2025690
2009,8,17,15,17,19.810000,2023740
2009,8,17,16,17,19.810000,2021800
2009,8,17,17,17,19.810000,2020250
2009,8,17,18,17,19.810000,2019420
2009,8,17,19,17,19.810000,2019530
2009,8,17,20,17,19.810000,2020550
2009,8,17,21,17,19.810000,2022280
2009,8,17,22,17,19.810000,2024380
2009,8,17,23,17,19.810000,2026370
2009,8,18,0,17,19.810000,2027830
2009,8,18,1,17,19.810000,2028590
2009,8,18,2,17,19.810000,2028590
2009,8,18,3,17,19.810000,2027960
2009,8,18,4,17,19.810000,2027040
2009,8,18,5,17,19.810000,2026120
2009,8,18,6,17,19.810000,2025510
2009,8,18,7,17,19.810000,2025420
2009,8,18,8,17,19.810000,2025880
2009,8,18,9,17,19.810000,2026850
2009,8,18,10,17,19.810000,2028030
2009,8,18,11,17,19.810000,2029000
2009,8,18,12,17,19.810000,2029370
2009,8,18,13,17,19.810000,2028930
2009,8,18,14,17,19.810000,2027640
2009,8,18,15,17,19.810000,2025720
2009,8,18,16,17,19.810000,2023360
2009,8,18,17,17,19.810000,2021040
2009,8,18,18,17,19.810000,2019310
2009,8,18,19,17,19.810000,2018450
2009,8,18,20,17,19.810000,2018890
2009,8,18,21,17,19.810000,2020360
2009,8,18,22,17,19.810000,2022450
2009,8,18,23,17,19.810000,2024780
2009,8,19,0,17,19.810000,2026800
2009,8,19,1,17,19.810000,2028100
2009,8,19,2,17,19.810000,2028490
2009,8,19,3,17,19.810000,2028070
2009,8,19,4,17,19.810000,2027080
2009,8,19,5,17,19.810000,2025750
2009,8,19,6,17,19.810000,2024590
2009,8,19,7,17,19.810000,2023990
2009,8,19,8,17,19.810000,2024060
2009,8,19,9,17,19.810000,2024860
2009,8,19,10,17,19.810000,2026300
2009,8,19,11,17,19.810000,2027840
2009,8,19,12,17,19.810000,2029070
2009,8,19,13,17,19.810000,2029570
2009,8,19,14,17,19.810000,2029140
2009,8,19,15,17,19.810000,2027770
2009,8,19,16,17,19.810000,2025580
2009,8,19,17,17,19.810000,2023050
2009,8,19,18,17,19.810000,2020800
2009,8,19,19,17,19.810000,2019190
2009,8,19,20,17,19.810000,2018660
2009,8,19,21,17,19.810000,2019370
2009,8,19,22,17,19.810000,2021100
2009,8,19,23,17,19.810000,2023350
2009,8,20,0,17,19.810000,2025720
2009,8,20,1,17,19.810000,2027610
2009,8,20,2,17,19.810000,2028560
2009,8,20,3,17,19.810000,2028580
2009,8,20,4,17,19.810000,2027750
2009,8,20,5,17,19.810000,2026340
2009,8,20,6,17,19.810000,2024820
2009,8,20,7,17,19.810000,2023590
2009,8,20,8,17,19.810000,2023110
2009,8,20,9,17,19.810000,2023500
2009,8,20,10,17,19.810000,2024750
2009,8,20,11,17,19.810000,2026510
2009,8,20,12,17,19.810000,2028310
2009,8,20,13,17,19.810000,2029690
2009,8,20,14,17,19.810000,2030180
2009,8,20,15,17,19.810000,2029600
2009,8,20,16,17,19.810000,2027980
2009,8,20,17,17,19.810000,2025700
2009,8,20,18,17,19.810000,2023270
2009,8,20,19,17,19.810000,2021200
2009,8,20,20,17,19.810000,2020020
2009,8,20,21,17,19.810000,2020000
2009,8,20,22,17,19.810000,2021100
2009,8,20,23,17,19.810000,2023020
2009,8,21,0,17,19.810000,2025280
2009,8,21,1,17,19.810000,2027360
2009,8,21,2,17,19.810000,2028750
2009,8,21,3,17,19.810000,2029120
2009,8,21,4,17,19.810000,2028580
2009,8,21,5,17,19.810000,2027200
2009,8,21,6,17,19.810000,2025440
2009,8,21,7,17,19.810000,2023800
2009,8,21,8,17,19.810000,2022760
2009,8,21,9,17,19.810000,2022580
2009,8,21,10,17,19.810000,2023410
2009,8,21,11,17,19.810000,2025080
2009,8,21,12,17,19.810000,2027080
2009,8,21,13,17,19.810000,2029020
2009,8,21,14,17,19.810000,2030360
2009,8,21,15,17,19.810000,2030620
2009,8,21,16,17,19.810000,2029780
2009,8,21,17,17,19.810000,2028120
2009,8,21,18,17,19.810000,2025910
2009,8,21,19,17,19.810000,2023670
2009,8,21,20,17,19.810000,2021890
2009,8,21,21,17,19.810000,2021110
2009,8,21,22,17,19.810000,2021400
2009,8,21,23,17,19.810000,2022720
2009,8,22,0,17,19.810000,2024610
2009,8,22,1,17,19.810000,2026460
2009,8,22,2,17,19.810000,2028010
2009,8,22,3,17,19.810000,2028950
2009,8,22,4,17,19.810000,2028980
2009,8,22,5,17,19.810000,2027820
2009,8,22,6,17,19.810000,2026160
2009,8,22,7,17,19.810000,2024450
2009,8,22,8,17,19.810000,2023180
2009,8,22,9,17,19.810000,2022720
2009,8,22,10,17,19.810000,2023130
2009,8,22,11,17,19.810000,2024120
2009,8,22,12,17,19.810000,2025630
2009,8,22,13,17,19.810000,2027570
2009,8,22,14,17,19.810000,2029320
2009,8,22,15,17,19.810000,2030320
2009,8,22,16,17,19.810000,2030450
2009,8,22,17,17,19.810000,2029580
2009,8,22,18,17,19.810000,2027850
2009,8,22,19,17,19.810000,2025910
2009,8,22,20,17,19.810000,2024270
2009,8,22,21,17,19.810000,2023300
2009,8,22,22,17,19.810000,2023140
2009,8,22,23,17,19.810000,2023760
2009,8,23,0,17,19.810000,2025100
2009,8,23,1,17,19.810000,2026810
2009,8,23,2,17,19.810000,2028450
2009,8,23,3,17,19.810000,2029530
2009,8,23,4,17,19.810000,2029780
2009,8,23,5,17,19.810000,2029090
2009,8,23,6,17,19.810000,2027600
2009,8,23,7,17,19.810000,2025770
2009,8,23,8,17,19.810000,2024020
2009,8,23,9,17,19.810000,2022820
2009,8,23,10,17,19.810000,2022450
2009,8,23,11,17,19.810000,2023000
2009,8,23,12,17,19.810000,2024320
2009,8,23,13,17,19.810000,2026110
2009,8,23,14,17,19.810000,2027940
2009,8,23,15,17,19.810000,2029350
2009,8,23,16,17,19.810000,2030060
2009,8,23,17,17,19.810000,2029860
2009,8,23,18,17,19.810000,2028910
2009,8,23,19,17,19.810000,2027460
2009,8,23,20,17,19.810000,2025860
2009,8,23,21,17,19.810000,2024550
2009,8,23,22,17,19.810000,2023780
2009,8,23,23,17,19.810000,2023900
2009,8,24,0,17,19.810000,2024640
2009,8,24,1,17,19.810000,2025810
2009,8,24,2,17,19.810000,2027080
2009,8,24,3,17,19.810000,2028140
2009,8,24,4,17,19.810000,2028630
2009,8,24,5,17,19.810000,2028290
2009,8,24,6,17,19.810000,2027240
2009,8,24,7,17,19.810000,2025630
2009,8,24,8,17,19.810000,2023890
2009,8,24,9,17,19.810000,2022420
2009,8,24,10,17,19.810000,2021610
2009,8,24,11,17,19.810000,2021520
2009,8,24,12,17,19.810000,2022260
2009,8,24,13,17,19.810000,2023600
2009,8,24,14,17,19.810000,2025260
2009,8,24,15,17,19.810000,2026940
2009,8,24,16,17,19.810000,2028150
2009,8,24,17,17,19.810000,2028660
2009,8,24,18,17,19.810000,2028580
2009,8,24,19,17,19.810000,2027830
2009,8,24,20,17,19.810000,2026810
2009,8,24,21,17,19.810000,2025890
2009,8,24,22,17,19.810000,2025190
2009,8,24,23,17,19.810000,2025100
2009,8,25,0,17,19.810000,2025540
2009,8,25,1,17,19.810000,2026370
2009,8,25,2,17,19.810000,2027410
2009,8,25,3,17,19.810000,2028380
2009,8,25,4,17,19.810000,2029100
2009,8,25,5,17,19.810000,2029110
2009,8,25,6,17,19.810000,2028440
2009,8,25,7,17,19.810000,2027180
2009,8,25,8,17,19.810000,2025700
2009,8,25,9,17,19.810000,2024310
2009,8,25,10,17,19.810000,2023270
2009,8,25,11,17,19.810000,2022760
2009,8,25,12,17,19.810000,2022880